Location: Unspecified
(64.9000°N, 0.0000°E)
Time: 09:53:26
(UTC+00:00)

A-11 Canister half - Visible Passes

Search period start: 05 August 2020 00:00
Search period end: 15 August 2020 00:00
Orbit: 1513 x 1687 km, 47.2° (Epoch: 04 August)

Date Brightness Start Highest point End Pass type
(mag) Time Alt. Az. Time Alt. Az. Time Alt. Az.
05 Aug 10.3 01:18:55 10° WSW 01:24:38 17° SW 01:30:22 10° S visible
05 Aug 9.9 22:51:50 10° WSW 22:59:35 27° SSW 23:07:28 10° SE visible
06 Aug 10.2 00:55:57 10° WSW 01:01:51 18° SW 01:07:47 10° S visible
06 Aug 9.9 22:29:00 10° WSW 22:36:46 27° S 22:44:41 10° SE visible
07 Aug 10.2 00:32:59 10° WSW 00:39:03 18° SW 00:45:11 10° S visible
07 Aug 10.0 22:06:10 10° WSW 22:13:58 27° S 22:21:53 10° SE visible
08 Aug 10.2 00:10:02 10° WSW 00:16:17 19° SW 00:22:34 10° S visible
08 Aug 10.2 23:47:07 10° WSW 23:53:30 19° SSW 23:59:38 11° S visible
09 Aug 10.2 23:24:11 10° WSW 23:30:42 20° SSW 23:36:52 11° S visible
10 Aug 10.2 23:01:17 10° WSW 23:07:55 20° SSW 23:14:17 11° S visible
11 Aug 10.3 22:38:23 10° WSW 22:45:06 21° SSW 22:51:49 10° SSE visible
12 Aug 10.3 22:15:30 10° WSW 22:22:19 22° SSW 22:29:16 10° SSE visible
13 Aug 10.3 21:52:37 10° WSW 21:59:31 22° SSW 22:06:34 10° SSE visible
13 Aug 10.7 23:59:52 10° WSW 00:01:17 10° SW 00:02:42 10° SW visible
14 Aug 10.3 21:29:44 10° WSW 21:36:44 23° SSW 21:43:51 10° SSE visible
14 Aug 10.7 23:36:12 10° WSW 23:38:33 11° SW 23:40:54 10° SW visible
